Regional Weather Roundup
Issued by NWS

Home | Current Version | Previous Version | Graphics & Text | Print | Product List | Glossary On
Versions: 1 2 3 4 5 6 7 8 9 10 11 12 13 14 15 16 17 18 19 20 21 22 23 24 25 26 27 28 29 30 31 32 33 34 35 36 37 38 39 40 41 42 43 44 45 46 47 48 49 50
000
ASUS43 KLMK 271502
RWRKY
KENTUCKY REGIONAL WEATHER ROUNDUP
NATIONAL WEATHER SERVICE LOUISVILLE KY
1100 AM EDT WED AUG 27 2014

NOTE "FAIR" INDICATES FEW OR NO CLOUDS BELOW 12,000 FEET
WITH NO SIGNIFICANT WEATHER AND/OR OBSTRUCTIONS TO VISIBILITY.

KYZ001>023-026-027-061>063-070>075-271600-
WESTERN AND SOUTH CENTRAL KENTUCKY

CITY           SKY/WX    TMP DP  RH WIND       PRES   REMARKS
PADUCAH        SUNNY     87  75  67 N5        30.10R HX  96
HENDERSON      SUNNY    N/A N/A N/A MISG        N/A
OWENSBORO      SUNNY     86  76  71 NW5       30.11R HX  96
HOPKINSVILLE   SUNNY     83  76  78 VRB1      30.11R HX  92
BOWLING GREEN  SUNNY     83  74  74 VRB3      30.11S
GLASGOW        SUNNY     82  68  62 CALM      30.12S
$$

KYZ024-025-028>034-038-045-046-053-271600-
NORTH CENTRAL KENTUCKY

CITY           SKY/WX    TMP DP  RH WIND       PRES   REMARKS
LOUISVILLE/SDF MOSUNNY   85  70  60 CALM      30.10S
LOUISVILLE/LOU SUNNY     84  70  62 NW5       30.11R
FORT KNOX      SUNNY     84  69  61 W2        30.11R
$$

KYZ035>037-039>044-047>052-055>060-089>105-271600-
NORTHEAST KENTUCKY

CITY           SKY/WX    TMP DP  RH WIND       PRES   REMARKS
LEXINGTON      SUNNY     82  67  60 S3        30.14R
COVINGTON      MOSUNNY   84  68  58 N5        30.12R
FRANKFORT      SUNNY     83  69  62 CALM      30.12R
$$

KYZ054-064>069-076>088-106>120-271600-
SOUTHEAST KENTUCKY

CITY           SKY/WX    TMP DP  RH WIND       PRES   REMARKS
JACKSON        SUNNY     75  64  68 CALM      30.16R
LONDON         SUNNY     78  66  66 VRB5      30.16R
SOMERSET       MOSUNNY   77  66  69 CALM      30.15S
MIDDLESBORO    MOSUNNY   69  65  85 CALM      30.17S
MONTICELLO     SUNNY     80  68  67 CALM      30.16R
$$



USA.gov is the U.S. government's official web portal to all federal, state and local government web resources and services.